Volver al catálogo

STARLINK-5269

ActivoComunicacionesVLEO
NORAD 54161·PAYLOAD·🇺🇸 United States

Lanzado Oct 28, 2022 desde Vandenberg Space Force Base

Loading…

Próximos Pases (próximas 24 horas)

TLE

ActualizadoSource: CelesTrak SupGP

Época: Sep 14, 2026, 22:21 UTC

1 54161C 22141E   26257.93173611  .00026543  00000+0  85345-3 0  2574
2 54161  53.1585 233.6980 0001159  93.6835 232.9283 15.31693227    16

Sigue STARLINK-5269 en tiempo real con AllMySat

Download on the App Store